Rochester, MN
on Wednesday, June 13, 2012

Wednesday
Previous Day Next Day
Daily Summary
 ActualAverageRecord
Temperature
Mean Temperature °F 67°F  
Max Temperature 74°F 78°F 98°F (1987)
Min Temperature 50°F 57°F 36°F (1933)
Degree Days
Heating Degree Days 3 2  
Month to date heating degree days 17 37  
Since 1 June heating degree days 17  
Since 1 July heating degree days 6066 7707  
Cooling Degree Days 0 4  
Month to date cooling degree days 67 38  
Year to date cooling degree days 153 72  
Since 1 June cooling degree days 67  
Growing Degree Days12 (Base °F )  
Moisture
Dew Point 46°F   
Average Humidity 58    
Maximum Humidity 77    
Minimum Humidity 38    
Precipitation
Precipitation 0.00 in 0.17 in 2.90 in (2000)
Month to date precipitation 0.38 2.00  
Year to date precipitation 11.33 12.44  
Since 1 June precipitation 0.38 2.00  
Snow
Snow 0.00 in 0.00 in 0.00 in (2012)
Month to date snowfall 0.0 0.0  
Since 1 June snowfall 0.0  
Since 1 July snowfall 20.6 51.9  
Snow Depth 0.00 in   
Wind
Wind Speed 11 mph   
Max Wind Speed 22 mph   
Max Gust Speed 31 mph   
Visibility 10 miles   
Events     

Key: T is trace of precipitation, MM is missing value
Source: NWS Daily Summary
Time(CDT)TemperatureDew PointHumidity Pressure Visibility Wind DirectionWind SpeedGust SpeedPrecipitationEvents Conditions
12:54 AM 55.0°F 43.0°F 64% 30.15 in 10.0 miles ESE 4.6 mph - N/A   Clear
1:54 AM 53.1°F 44.1°F 71% 30.16 in 10.0 miles South 3.5 mph - N/A   Clear
2:54 AM 52.0°F 44.1°F 74% 30.16 in 10.0 miles South 5.8 mph - N/A   Clear
3:54 AM 51.1°F 44.1°F 77% 30.15 in 10.0 miles SSE 4.6 mph - N/A   Clear
4:54 AM 52.0°F 43.0°F 71% 30.14 in 10.0 miles SE 6.9 mph - N/A   Clear
5:54 AM 53.1°F 43.0°F 69% 30.15 in 10.0 miles SSE 8.1 mph - N/A   Clear
6:54 AM 55.0°F 45.0°F 69% 30.15 in 10.0 miles SSE 6.9 mph - N/A   Clear
7:54 AM 61.0°F 46.0°F 58% 30.14 in 10.0 miles SSE 10.4 mph - N/A   Clear
8:54 AM 62.1°F 45.0°F 53% 30.14 in 10.0 miles SSE 9.2 mph - N/A   Clear
9:54 AM 62.1°F 46.0°F 56% 30.17 in 10.0 miles South 8.1 mph - N/A   Mostly Cloudy
10:54 AM 64.0°F 46.9°F 54% 30.17 in 10.0 miles South 10.4 mph - N/A   Overcast
11:54 AM 66.0°F 48.0°F 52% 30.16 in 10.0 miles South 10.4 mph - N/A   Mostly Cloudy
12:54 PM 68.0°F 46.0°F 45% 30.11 in 10.0 miles South 18.4 mph 25.3 mph N/A   Mostly Cloudy
1:54 PM 72.0°F 46.0°F 40% 30.08 in 10.0 miles South 13.8 mph 21.9 mph N/A   Clear
2:54 PM 73.0°F 46.0°F 38% 30.04 in 10.0 miles SSE 13.8 mph 24.2 mph N/A   Clear
3:54 PM 73.0°F 46.9°F 39% 30.04 in 10.0 miles SSE 12.7 mph 25.3 mph N/A   Clear
4:54 PM 73.0°F 46.0°F 38% 30.00 in 10.0 miles SE 18.4 mph 28.8 mph N/A   Partly Cloudy
5:54 PM 73.0°F 50.0°F 44% 29.99 in 10.0 miles SSE 17.3 mph 26.5 mph N/A   Scattered Clouds
6:54 PM 73.0°F 48.0°F 41% 29.99 in 10.0 miles SSE 16.1 mph 24.2 mph N/A   Clear
7:54 PM 70.0°F 48.0°F 46% 29.98 in 10.0 miles SSE 15.0 mph 20.7 mph N/A   Partly Cloudy
8:54 PM 68.0°F 48.0°F 49% 29.98 in 10.0 miles SSE 10.4 mph - N/A   Overcast
9:54 PM 64.9°F 48.0°F 54% 30.00 in 10.0 miles SSE 11.5 mph - N/A   Clear
10:54 PM 64.0°F 46.9°F 54% 30.01 in 10.0 miles SSE 12.7 mph - N/A   Clear
11:54 PM 63.0°F 46.9°F 56% 30.01 in 10.0 miles SSE 12.7 mph - N/A   Clear
Astronomy
Sunrise:05:26 AM (CDT) Moon Rise:01:49 AM (CDT)6/13
Sunset:08:53 PM (CDT) Moon Set:03:32 PM (CDT)6/13
Moon Phase
Jun. 13 Jun. 19 Jun. 26 Jul. 03 Jul. 10

Copyright © 2014 The Weather Underground, Inc.